Location: ????? ??????
(37.8317°N, 23.8750°E)
Time: 12:10:43
(UTC+00:00)

SJ 16-02 - Pass Details

Date: 20 January 2021
Orbit: 606 x 616 km, 75.0° (Epoch: 04 March)

Event Time Altitude Azimuth Distance (km) Brightness Sun altitude
Rises 17:08:14 0° 206° (SSW) 2,864 5.3 -18.3°
Reaches altitude 10° 17:10:30 10° 210° (SSW) 1,962 4.5 -18.8°
Maximum altitude 17:14:48 56° 289° (WNW) 730 2.0 -19.6°
Enters shadow 17:18:49 12° 7° (N) 1,849 3.6 -20.4°
